{"data":{"norad_id":48135,"intl_designator":"2021-027AV","name":"STARLINK-2478","alt_names":[],"object_type":"PAYLOAD","status":"ACTIVE","operator":null,"country":"US","launch_date":"2021-04-07","launch_site_code":"AFETR","launch_vehicle":null,"mission":null,"orbit_class":"UNKNOWN","rcs_meters":null,"size_class":null,"mass_kg":null,"dimensions":null,"purposes":["comms"],"wikipedia_slug":null,"has_3d_model":false,"image_url":null,"decayed_at":null,"tle_current":{"epoch":"2026-09-19T22:52:04.549152Z","epoch_age_seconds":76508,"freshness":"FRESH","line1":"1 48135U 21027AV  26262.95283043 -.00000172  00000+0  62116-5 0  9996","line2":"2 48135  53.1612 343.8967 0001304  87.0233 273.0918 15.31690531302247","mean_motion":15.31690531,"eccentricity":0.0001304,"inclination_deg":53.1612,"raan_deg":343.8967,"arg_perigee_deg":87.0233,"mean_anomaly_deg":273.0918,"bstar":6.2116e-6,"rev_number":30224,"period_min":94.013769156088,"perigee_km":469.87512472639,"apogee_km":471.66131920828,"semimajor_km":6848.9052219673,"source":"CELESTRAK","updated_at":"2026-09-20T09:00:38.768406Z"}}}